GFSNW_500_spd_108.txt.gz
Wind_Speed
35 33 31 27 29 16 12 15 11 7 5 2 7 14 21 26 34 43 48 46 28 17 20 22 24 19 24 18 24 25 19 20 25 19 19 17 19 16 18 16 16 19 30 28
41 32 28 29 27 13 21 16 12 9 6 1 5 13 18 24 32 40 46 47 31 17 17 21 22 16 14 14 24 24 22 15 14 20 22 23 20 20 19 19 19 23 27 31
35 37 28 27 19 17 22 17 13 11 7 4 6 11 16 21 30 37 44 47 33 17 15 19 20 17 11 7 16 21 24 18 16 12 13 14 15 16 14 14 13 9 23 34
37 36 30 26 19 18 22 17 15 12 10 6 5 10 16 20 27 35 41 46 36 20 15 17 19 19 14 10 10 15 14 11 10 6 7 5 12 15 17 3 4 3 7 17
45 38 29 26 19 22 21 17 16 13 11 8 6 10 14 18 24 31 38 43 43 27 15 15 17 18 16 13 10 8 5 6 5 3 2 5 6 16 14 7 4 4 6 11
44 38 29 26 21 23 23 18 17 14 12 8 6 10 13 16 21 28 35 40 43 33 24 13 14 15 16 11 9 8 7 8 6 8 9 8 14 12 9 6 3 2 3 5
42 37 34 29 20 26 23 19 17 14 12 9 7 9 12 14 18 23 31 36 42 41 29 18 13 13 14 12 8 5 6 10 13 15 11 8 7 9 10 10 4 9 4 9
44 38 35 24 29 29 24 19 17 15 12 9 8 8 11 12 16 21 27 32 37 41 33 23 14 12 11 10 9 6 5 6 10 11 9 11 7 10 8 4 8 15 14 4
43 39 37 29 29 28 23 20 18 16 12 9 8 7 10 11 14 17 22 28 34 37 37 32 20 14 9 9 9 7 9 5 4 7 7 10 11 11 9 6 6 14 12 12
40 41 33 28 31 31 25 20 20 16 14 10 8 6 9 10 12 14 20 24 29 33 34 35 26 15 10 6 8 9 6 9 6 3 5 5 8 11 12 11 10 11 11 9
40 40 37 28 25 26 31 25 21 17 13 10 8 6 7 8 10 13 16 20 24 28 32 33 33 25 13 7 3 5 4 4 8 8 7 6 9 8 11 11 14 16 17 18
36 39 38 32 25 33 32 26 21 17 13 9 8 6 5 6 8 11 14 16 19 23 27 30 32 33 26 14 4 0 2 2 3 5 9 9 11 15 15 14 13 14 16 20
35 38 39 27 26 33 29 25 21 16 14 9 7 5 4 3 5 8 11 14 17 19 22 25 27 29 31 27 14 1 3 6 7 7 9 10 12 15 16 17 18 17 18 19
35 38 35 29 26 24 33 27 22 20 15 9 5 3 0 2 3 5 9 14 16 17 19 21 24 25 27 27 26 21 9 4 10 10 11 12 13 16 18 19 20 21 21 22
35 40 34 32 25 23 28 29 25 21 15 10 7 5 2 3 4 5 8 12 15 16 18 19 21 21 23 24 26 26 22 14 5 12 16 15 16 17 18 19 21 23 22 22
36 36 31 31 27 26 26 32 27 22 18 13 8 6 5 4 4 6 7 9 13 15 17 18 19 21 21 22 23 23 22 22 18 8 11 19 21 22 21 21 21 22 23 23
42 30 37 29 30 26 30 32 26 23 20 16 11 7 7 7 5 6 9 9 12 14 16 18 19 20 21 22 21 21 21 19 18 16 11 10 18 22 24 25 25 25 25 24
47 35 38 33 28 27 31 27 27 24 21 17 12 9 9 9 5 7 10 10 11 14 15 17 18 18 20 21 22 21 21 20 18 15 13 13 11 17 24 25 26 27 28 29
47 37 38 37 32 29 29 29 28 25 20 15 13 11 8 8 6 10 13 12 11 14 16 17 18 19 20 22 23 23 22 20 19 17 15 12 11 12 15 23 29 28 29 31
49 41 40 38 37 37 32 32 28 24 21 21 16 12 7 8 8 10 15 15 13 14 17 19 21 21 22 22 23 24 24 23 23 21 19 17 15 14 14 15 19 28 32 31
55 46 44 40 36 34 34 33 27 25 23 19 16 15 12 10 9 10 15 16 16 16 20 22 24 24 25 26 26 27 27 27 27 26 24 21 20 19 18 19 20 21 24 33
59 50 46 43 39 37 36 37 31 31 24 19 19 17 17 17 15 16 18 19 19 18 19 23 26 27 28 29 29 29 30 30 30 31 29 28 25 24 24 24 24 22 23 27
56 54 50 45 40 42 44 37 30 29 27 25 23 23 24 24 21 20 21 22 22 22 22 24 27 29 30 31 31 31 32 33 34 35 35 35 32 29 27 27 27 30 30 31
61 57 55 50 48 45 39 31 32 30 29 25 21 21 25 26 24 22 23 24 26 24 25 26 28 30 32 34 34 33 34 36 37 38 39 39 37 32 30 30 31 32 35 33
63 58 55 55 50 43 36 35 34 32 29 24 22 22 24 25 24 23 25 27 30 28 29 29 31 32 35 37 37 37 38 39 41 42 43 44 41 36 34 34 34 36 36 37
65 60 55 52 48 41 38 38 33 29 28 25 23 22 24 25 25 23 27 29 29 29 31 33 34 36 38 40 40 40 41 43 44 46 48 48 45 41 40 40 39 40 42 47
66 62 57 49 45 43 41 34 28 28 26 24 23 25 24 25 25 24 26 28 28 30 33 34 36 39 41 42 43 43 44 45 48 50 53 53 49 46 46 45 50 53 51 52

GFSNW_500_spd_111.txt.gz
Wind_Speed
44 45 30 31 25 20 22 15 19 15 10 7 5 5 8 17 24 32 42 47 37 21 21 22 12 18 26 25 18 16 22 20 19 18 21 18 19 18 18 25 27 27 27 25
41 42 32 28 26 22 24 22 18 14 10 9 7 2 7 16 23 30 39 45 40 21 20 21 12 9 22 20 21 25 27 25 22 16 11 14 18 17 18 19 23 23 26 22
39 33 30 26 24 27 21 27 18 14 11 9 7 1 7 15 20 28 37 43 42 23 19 20 15 12 12 20 22 24 24 18 13 10 8 6 8 13 14 13 14 15 18 21
33 31 28 30 24 25 24 26 19 15 12 10 7 3 7 14 18 26 34 40 42 29 19 19 17 14 15 17 19 15 15 12 12 12 5 3 7 8 11 9 10 8 13 23
26 29 20 26 19 22 31 22 19 16 13 12 8 5 7 13 17 23 30 36 41 34 21 18 18 14 12 11 11 10 11 6 3 4 6 10 5 11 10 14 8 5 14 13
30 29 30 30 22 23 29 25 20 16 15 13 8 6 7 11 16 20 27 34 38 37 29 17 17 14 7 9 9 9 7 5 7 9 14 13 13 9 1 3 5 12 10 8
32 34 34 27 27 26 31 26 20 17 17 14 10 7 7 9 13 18 23 29 35 37 36 25 16 15 13 6 7 11 12 13 15 11 8 7 5 3 2 1 3 6 8 6
29 36 31 29 23 27 30 25 21 19 18 14 11 8 6 7 12 15 19 25 30 35 35 30 19 14 14 11 6 7 9 10 10 10 10 6 8 6 6 4 2 5 8 8
32 38 35 29 24 25 28 24 22 20 18 15 12 9 7 7 9 12 15 21 26 30 32 34 28 17 14 14 8 6 6 7 5 6 4 5 10 10 5 2 3 6 2 1
33 35 33 31 24 29 30 24 21 20 18 17 14 10 7 6 8 9 13 16 21 24 29 31 32 27 20 12 8 7 5 3 3 3 3 3 4 8 8 7 6 6 6 7
29 36 33 25 32 35 32 25 22 21 18 17 15 12 8 6 7 9 11 13 17 20 23 27 30 30 27 15 8 4 4 7 7 4 3 4 5 6 10 10 14 13 11 9
31 35 35 28 29 32 30 26 23 21 18 16 14 11 8 5 5 7 9 11 14 16 19 21 24 28 27 27 13 7 4 3 4 6 8 7 7 10 12 11 14 17 19 21
30 38 37 32 31 23 35 30 26 22 19 16 14 11 8 6 3 4 7 11 12 13 15 17 19 21 22 24 22 20 14 6 5 7 9 12 12 11 14 18 19 18 18 18
28 40 39 37 31 25 30 32 30 25 20 17 14 11 8 5 3 1 3 8 11 12 13 14 16 17 19 19 20 21 20 16 8 4 10 15 16 16 17 19 21 22 23 24
28 32 40 37 31 27 33 34 31 27 24 18 14 11 7 5 3 2 3 5 8 11 12 13 14 15 16 17 18 19 18 17 15 9 8 8 13 18 21 22 23 24 24 26
32 30 39 37 31 24 32 33 30 27 24 16 15 12 9 6 6 5 4 4 8 10 12 13 15 16 16 17 17 18 17 17 16 13 10 8 6 8 17 23 27 27 26 27
38 33 34 38 35 28 31 35 33 31 25 20 17 13 11 8 8 7 8 6 8 10 11 12 15 17 17 19 18 19 19 19 18 16 15 12 8 7 9 15 22 28 30 30
43 36 30 34 35 30 29 34 36 33 29 25 20 17 13 11 10 10 10 10 10 12 12 12 14 17 19 20 20 20 20 21 21 19 18 17 15 12 10 13 18 22 27 31
55 41 35 36 35 33 33 34 36 34 29 25 23 20 15 13 12 12 13 15 14 14 15 15 16 17 20 22 22 23 23 22 22 22 20 19 18 17 17 17 19 21 24 27
62 53 42 35 35 32 30 34 34 33 29 26 25 22 18 15 12 12 13 13 14 14 15 16 18 19 22 24 25 27 26 26 26 25 25 24 21 19 20 21 22 25 28 28
62 59 52 37 38 37 31 38 38 33 30 28 26 23 20 17 14 13 13 14 15 15 18 17 19 22 25 27 27 29 30 30 29 29 29 29 27 24 23 24 25 27 29 32
65 63 54 46 44 39 37 40 40 35 34 30 28 25 23 20 18 17 18 20 21 19 20 20 23 26 27 29 30 31 33 33 32 33 34 33 33 32 30 29 28 28 31 34
66 67 60 55 50 43 41 44 39 32 26 29 29 26 23 22 20 21 25 25 23 24 22 23 25 27 28 31 33 34 36 37 37 37 38 38 38 39 38 34 32 29 31 34
73 69 67 58 51 44 38 41 35 33 34 35 33 29 24 24 25 24 27 28 27 24 23 26 27 28 30 33 36 38 39 40 40 40 42 42 42 43 43 40 34 31 31 34
76 71 68 61 49 44 37 41 37 40 37 36 36 33 28 26 25 26 28 28 28 26 26 26 27 29 33 37 39 41 42 43 42 43 45 46 46 47 46 43 37 38 36 38
77 73 68 60 57 46 40 37 42 41 38 37 36 33 29 27 29 28 29 28 28 29 26 26 28 32 36 40 42 44 45 46 46 47 48 49 50 51 49 46 44 42 50 52
78 71 65 61 57 50 43 39 42 41 39 40 39 36 32 31 30 30 30 30 30 28 26 27 29 33 37 42 44 47 48 48 50 50 53 53 54 55 54 51 52 55 55 52

GFSNW_500_spd_114.txt.gz
Wind_Speed
50 47 38 39 33 31 11 7 15 24 17 13 7 2 3 10 17 26 35 42 36 25 23 15 20 23 25 20 23 21 21 18 18 20 14 15 25 18 19 20 27 31 28 27
48 35 28 23 24 15 9 11 25 22 16 11 7 3 4 10 17 25 34 41 40 27 21 17 19 22 28 30 23 20 20 19 16 13 15 15 20 16 19 19 35 34 29 29
28 31 26 21 15 8 6 23 26 20 16 11 7 4 4 11 18 25 31 39 39 29 22 19 17 22 24 25 22 21 16 16 15 16 14 13 18 21 17 17 28 24 24 25
22 26 17 12 8 11 18 28 24 20 16 11 7 5 4 12 17 23 29 36 39 32 24 20 15 18 17 15 15 12 10 12 13 16 15 12 14 13 14 16 18 16 21 25
17 14 11 11 13 8 20 26 23 18 15 11 7 5 4 12 15 21 27 31 38 35 25 22 13 12 15 14 8 1 2 2 6 9 17 16 10 15 13 12 11 15 16 16
18 13 14 11 13 10 20 26 21 17 14 10 7 5 5 9 14 19 23 28 34 36 31 22 17 10 11 11 9 9 9 10 15 16 17 17 10 13 13 14 14 9 8 11
14 17 13 15 12 12 26 24 20 17 14 10 8 6 6 8 12 16 21 26 29 34 35 28 19 16 7 10 11 14 14 16 18 15 13 9 9 9 10 14 12 9 8 11
16 17 15 15 15 16 25 20 19 17 14 10 8 6 6 6 10 14 18 22 25 30 32 30 24 21 15 8 8 11 13 15 15 12 9 7 7 8 11 9 7 10 9 6
16 17 17 13 15 13 24 19 18 18 14 11 9 6 5 5 8 12 15 18 22 26 28 31 27 23 20 13 8 5 6 8 8 9 10 9 9 9 6 6 5 7 6 9
15 17 18 21 15 17 25 18 17 18 15 13 11 7 5 4 6 9 12 14 17 20 24 26 28 24 25 18 11 7 6 5 5 4 5 6 5 4 2 2 1 5 4 4
18 19 22 24 19 21 24 18 18 18 15 14 13 9 6 4 4 7 10 11 13 15 20 23 23 25 24 24 20 11 3 2 2 1 1 3 5 6 7 7 5 6 6 4
20 23 24 24 20 24 27 20 19 18 15 15 14 11 8 6 3 5 8 11 11 12 15 18 19 21 22 24 20 21 12 5 1 2 5 5 6 6 8 10 11 11 14 14
22 23 29 27 21 27 30 25 21 19 15 15 14 13 11 7 4 1 5 8 11 12 12 14 16 17 18 19 19 20 18 17 13 8 6 6 9 11 13 12 14 16 20 22
25 24 32 29 26 29 30 31 27 21 17 16 14 14 13 9 6 5 5 6 8 11 12 13 13 14 16 17 16 17 16 16 15 14 11 8 7 8 13 15 16 18 21 24
30 24 29 34 32 29 29 29 28 26 21 19 17 15 14 9 6 5 6 8 8 8 10 12 13 15 15 16 16 17 15 14 13 12 12 9 7 5 8 11 14 17 21 25
37 29 28 32 36 34 29 24 32 33 28 21 20 18 16 11 7 7 7 7 9 10 9 11 14 15 16 17 17 18 18 16 15 14 13 11 8 5 4 3 7 13 17 20
43 35 31 32 36 40 37 31 30 35 35 29 26 21 17 13 9 8 9 8 8 11 11 11 12 15 16 17 18 20 21 21 20 19 19 16 16 12 9 8 10 11 14 18
48 40 36 33 38 42 39 33 36 39 36 33 27 21 19 16 13 11 11 10 10 11 12 13 12 14 16 17 19 21 23 24 24 24 22 22 22 21 19 16 15 16 17 20
57 49 41 37 36 41 39 34 40 40 37 35 30 24 21 18 15 14 14 14 13 12 11 14 14 16 17 18 20 22 24 26 27 28 27 26 25 25 24 24 22 20 21 24
64 54 47 43 36 38 40 37 42 43 40 35 32 28 26 21 19 16 15 15 13 11 13 13 15 17 18 21 22 24 26 29 30 30 31 31 31 31 30 30 29 26 25 27
68 65 53 47 40 38 41 36 40 42 41 35 29 29 28 24 21 19 17 17 15 14 15 17 16 20 19 21 23 25 27 30 32 34 35 36 36 36 36 35 34 33 31 30
66 65 65 54 50 45 42 41 41 44 40 36 32 32 30 25 23 21 20 21 21 18 21 21 19 22 21 23 24 26 29 32 35 37 39 40 40 40 41 41 41 41 39 35
69 69 70 65 68 58 46 42 38 41 41 32 31 33 31 28 26 24 24 24 22 23 22 21 23 23 24 24 24 27 30 33 36 39 43 44 44 45 45 45 47 47 43 39
73 71 75 73 72 62 46 38 34 31 35 34 37 37 33 29 27 26 25 26 26 24 22 22 23 24 25 25 25 28 31 35 39 42 45 47 47 48 50 52 52 50 48 42
77 76 77 72 66 60 52 42 36 35 39 43 38 39 35 33 31 28 27 28 28 25 26 25 24 24 25 26 27 30 34 38 42 45 48 49 50 51 53 55 57 56 53 50
77 78 78 70 67 62 54 46 41 34 43 42 42 39 36 34 33 30 30 30 28 30 30 29 27 26 26 28 30 34 38 42 46 49 51 52 53 55 57 59 59 59 58 59
80 77 77 72 68 63 56 50 43 41 40 43 43 40 37 35 33 31 28 30 34 32 32 32 29 28 28 30 34 38 42 46 50 53 54 55 57 59 61 62 63 64 66 68

GFSNW_500_spd_117.txt.gz
Wind_Speed
43 39 34 29 28 24 13 6 5 16 21 17 14 11 8 11 14 22 29 33 28 22 20 27 29 27 25 22 25 22 21 20 15 18 19 21 21 23 28 30 35 37 37 30
29 27 24 25 18 8 3 7 23 25 21 18 15 12 11 13 18 23 31 32 31 25 21 23 25 21 16 18 20 20 17 18 18 12 17 18 20 21 30 28 23 18 19 31
17 12 18 10 9 6 16 26 26 24 21 18 16 13 12 16 19 25 29 33 32 26 19 18 18 14 15 15 17 19 18 19 18 20 21 22 20 19 29 24 23 25 26 24
11 8 11 7 4 8 18 22 22 22 21 18 16 13 13 17 21 25 28 31 35 27 18 19 13 10 8 8 12 14 14 18 18 18 19 21 22 17 29 24 23 21 26 21
6 9 10 7 17 17 25 22 20 21 19 17 14 12 13 18 21 23 27 29 35 30 24 15 12 10 1 6 11 13 11 12 18 21 21 18 20 17 16 19 17 18 23 22
13 13 12 10 9 8 17 18 19 19 17 15 12 11 11 17 20 22 25 27 31 33 30 21 10 12 13 17 19 22 23 24 23 22 24 22 20 17 13 13 14 13 14 13
13 16 14 9 6 9 18 16 16 18 16 13 10 9 10 14 17 20 23 26 28 31 32 28 23 11 13 17 17 17 18 18 17 17 17 18 17 20 21 17 12 11 9 12
17 14 13 10 8 6 16 14 14 15 15 11 7 6 8 11 14 17 20 22 26 28 30 28 26 21 13 12 14 15 16 16 13 10 10 14 19 18 16 15 12 8 7 8
15 16 13 8 5 2 13 12 12 13 12 9 5 4 5 8 12 14 16 19 22 25 27 28 26 23 20 14 10 9 9 9 10 12 10 10 14 13 13 11 9 8 8 4
18 18 16 12 8 3 12 11 11 11 11 9 5 2 3 5 9 12 14 15 17 19 23 25 24 24 24 20 16 13 11 9 7 5 6 8 8 4 4 6 6 4 2 1
23 21 19 17 12 8 9 16 13 12 11 10 6 3 1 2 6 10 11 12 14 15 18 20 21 23 23 23 23 19 14 8 5 5 2 2 1 1 2 2 1 1 1 3
30 26 23 22 18 15 13 21 15 14 13 11 8 6 4 2 2 6 9 11 13 14 14 15 17 20 20 20 20 22 17 16 13 8 5 6 4 5 5 5 7 8 7 7
32 32 28 26 24 21 16 23 18 16 15 12 11 9 7 5 4 3 4 8 11 12 13 13 13 15 17 16 17 18 17 16 15 13 12 11 8 5 6 8 10 11 14 14
36 35 34 31 29 26 20 28 22 18 17 15 12 11 9 8 8 7 6 5 6 9 11 12 14 14 17 15 16 15 15 14 14 11 10 8 8 9 10 10 8 9 13 16
42 40 35 36 32 32 30 28 29 23 21 19 14 12 11 10 9 9 8 7 6 6 8 9 10 14 15 17 18 17 16 14 12 11 11 9 6 5 4 4 6 9 12 13
45 45 42 39 34 36 35 30 32 32 29 24 19 15 14 13 11 10 10 8 7 7 7 7 7 9 12 14 16 17 19 18 16 14 14 13 12 8 8 7 6 7 9 11
48 48 46 44 39 39 41 33 33 34 31 34 25 21 19 15 14 13 11 11 9 8 9 8 9 8 9 12 14 16 18 18 19 19 19 17 18 16 15 14 14 14 14 14
41 50 47 49 45 42 44 41 38 34 33 36 34 29 23 19 18 16 14 13 11 10 11 10 10 10 9 11 13 15 16 18 19 20 21 22 23 23 22 21 21 20 20 20
42 48 50 50 51 45 42 46 43 41 37 35 38 34 30 25 20 19 16 15 13 10 10 9 10 12 10 12 14 15 16 17 19 21 22 24 25 26 26 27 28 28 28 28
47 47 60 52 51 47 44 46 45 45 42 39 38 39 35 29 25 21 20 17 14 11 10 9 10 14 12 13 15 15 16 17 20 22 24 26 28 30 31 32 32 33 35 36
53 52 60 56 52 49 48 48 48 46 46 40 40 41 40 33 28 25 21 18 17 14 12 13 12 18 16 16 17 18 17 18 21 23 26 29 31 34 35 37 38 39 40 41
49 52 54 59 57 53 55 51 50 47 45 42 41 42 40 35 31 28 24 23 22 15 13 15 14 23 18 18 19 19 19 19 22 24 28 31 35 38 41 43 44 45 47 49
47 56 56 66 65 64 60 55 51 48 42 41 44 44 42 35 32 31 29 28 24 19 15 13 17 20 18 19 20 20 21 22 24 27 31 35 39 43 46 48 49 50 53 55
52 59 63 72 74 68 59 53 47 42 36 34 39 46 46 41 38 37 34 30 26 21 13 17 20 19 21 21 22 22 22 25 28 31 35 39 42 46 50 52 54 54 56 58
58 65 67 79 72 62 62 55 46 38 34 36 34 43 45 44 42 40 36 33 29 16 17 22 21 21 22 24 23 25 24 28 31 34 38 41 46 49 53 56 57 60 61 63
62 70 66 70 71 64 65 57 50 42 37 33 34 42 48 47 46 42 36 33 23 20 27 25 24 26 26 25 25 25 27 32 35 38 40 44 48 52 56 58 60 63 66 68
70 67 62 60 73 66 67 67 60 54 48 41 36 39 43 46 44 40 34 28 27 30 29 27 28 29 29 27 27 29 33 35 38 40 43 47 51 55 59 61 63 67 70 73

GFSNW_500_spd_120.txt.gz
Wind_Speed
37 25 26 27 24 20 11 7 7 25 23 18 16 14 13 13 17 22 21 23 25 27 25 22 21 23 21 17 18 21 23 18 20 20 21 18 23 18 20 21 22 18 32 31
33 37 32 27 20 23 6 12 28 26 23 21 17 15 15 18 22 24 24 24 25 24 23 18 19 19 21 20 20 19 22 20 20 16 21 20 22 27 24 30 24 25 37 31
39 37 34 31 20 20 29 27 25 23 23 20 17 16 18 21 25 22 27 26 26 25 24 17 9 11 14 17 19 18 16 20 20 18 22 24 21 26 23 21 18 25 29 31
41 41 39 35 19 24 23 23 19 19 20 19 17 18 20 23 25 24 27 28 26 22 21 20 11 8 11 16 15 15 14 18 20 21 18 17 21 19 24 23 24 18 25 24
40 34 32 28 18 18 21 17 16 15 16 16 17 18 20 23 24 24 26 28 28 26 19 22 17 15 19 20 23 23 20 21 20 21 19 22 19 21 21 17 20 27 30 26
30 31 26 23 18 8 13 14 12 11 13 13 15 17 18 21 23 24 26 28 27 27 23 18 20 19 19 21 24 24 23 24 21 20 18 16 20 19 17 15 16 23 25 24
24 23 19 20 18 2 5 10 8 9 10 11 13 14 15 18 21 23 25 25 27 28 27 23 15 17 16 16 17 17 17 18 19 16 14 16 18 14 13 12 12 12 8 9
19 21 15 13 15 3 2 3 5 6 6 8 10 11 12 15 17 20 22 24 25 26 27 25 22 16 11 12 13 15 18 17 14 17 17 16 14 13 13 13 13 11 7 4
22 21 12 8 9 8 6 3 4 4 4 5 7 8 9 12 14 15 18 20 22 23 25 25 24 22 20 13 11 8 10 12 14 13 13 12 13 11 9 11 14 15 14 15
29 23 19 11 8 8 6 6 6 7 5 3 4 5 6 8 11 13 14 16 17 18 21 22 23 23 24 21 17 15 16 16 11 10 9 6 6 7 8 9 7 6 9 11
32 32 25 18 16 11 9 11 9 10 9 6 3 2 3 4 8 11 12 13 13 14 16 18 19 20 21 21 20 19 20 19 17 14 11 9 5 4 5 3 3 4 4 2
32 33 31 23 21 17 15 14 16 12 12 11 8 5 2 1 2 6 9 11 12 11 12 13 14 16 17 19 18 19 18 18 18 19 17 18 15 13 9 6 4 2 2 3
29 35 34 29 25 25 21 18 18 20 14 15 14 10 7 5 5 3 4 7 8 10 11 12 12 13 13 14 15 14 16 18 17 16 16 16 15 14 13 14 13 10 6 2
31 30 37 35 30 28 27 22 21 24 20 18 18 16 12 9 8 7 5 4 4 5 7 9 11 12 13 14 15 13 14 14 15 13 12 10 12 13 11 8 6 6 5 3
31 33 36 39 37 32 31 27 27 24 27 21 20 20 16 12 10 8 6 6 5 4 3 3 5 7 9 11 12 14 13 12 13 12 12 11 10 9 8 7 5 4 3 2
33 33 32 40 42 40 34 32 32 28 34 26 22 21 21 16 14 12 9 6 7 6 4 3 3 2 5 7 8 9 10 11 11 11 12 11 12 12 11 9 8 7 7 6
37 34 34 35 44 44 39 33 34 35 33 38 30 26 24 22 18 15 13 10 8 8 8 6 5 5 3 4 6 7 8 8 9 10 11 11 13 13 13 14 14 15 14 14
39 36 37 35 40 47 44 37 36 38 37 43 41 33 28 25 22 20 18 15 11 10 10 8 7 6 5 5 6 7 7 7 8 9 10 12 13 15 17 19 20 21 20 21
40 36 37 37 37 43 47 43 40 42 42 43 45 36 33 31 27 26 23 20 16 12 12 9 8 8 6 6 6 7 8 7 8 9 10 12 15 17 19 21 24 26 27 28
42 39 39 39 37 38 48 48 44 46 46 47 42 37 38 37 34 33 28 25 22 15 14 12 10 9 8 9 9 9 10 10 10 11 11 12 16 19 23 25 27 31 33 33
51 44 43 41 42 43 46 56 51 50 49 51 45 40 37 38 42 39 37 29 25 21 17 15 10 15 10 10 12 11 12 12 13 14 15 17 21 24 27 30 32 36 39 41
49 48 47 47 48 50 54 58 60 54 51 51 48 45 42 39 41 44 40 35 32 27 19 18 11 19 10 10 11 12 13 15 16 17 18 21 24 28 31 34 36 40 44 46
50 51 52 54 55 58 61 60 63 58 51 50 48 45 46 44 46 47 45 39 38 32 27 17 15 22 14 11 12 14 15 18 19 19 21 25 28 30 33 37 40 43 46 50
55 57 58 61 64 60 50 52 61 57 54 51 43 44 44 45 47 50 44 43 41 37 28 13 23 21 19 17 15 16 17 19 21 21 24 28 31 33 35 39 43 46 50 53
60 63 65 65 57 53 47 52 63 59 57 52 45 44 41 43 50 50 48 47 45 38 20 22 24 21 20 20 18 18 19 19 20 24 27 30 33 35 38 43 47 50 53 57
60 63 63 57 53 49 46 49 61 63 58 56 50 46 40 44 49 54 52 49 43 32 24 26 30 25 23 22 21 20 21 21 24 26 28 32 37 39 42 46 50 53 57 60
70 61 54 49 47 45 46 52 58 67 60 56 53 48 42 42 49 51 53 50 43 30 27 32 32 28 27 25 24 24 24 26 28 29 32 35 40 42 45 50 54 57 60 63

GFSNW_500_spd_126.txt.gz
Wind_Speed
41 41 39 39 39 37 35 35 34 33 29 27 26 27 25 24 23 19 15 15 16 16 17 16 15 19 17 15 17 16 16 17 19 17 13 18 15 15 11 16 20 23 26 22
36 37 35 34 32 32 32 30 31 30 28 28 27 28 28 27 25 24 19 14 13 12 13 16 17 17 13 14 16 17 18 17 18 21 21 20 21 19 18 16 20 22 28 27
33 28 29 28 27 27 25 25 27 27 27 28 28 27 28 29 29 25 23 22 18 17 17 17 16 14 13 13 14 15 14 13 16 22 25 26 22 17 19 20 25 27 29 26
31 29 24 22 24 22 23 23 23 23 24 25 26 27 27 28 29 29 23 21 22 20 20 19 17 19 18 14 15 15 13 14 13 15 18 23 27 28 24 23 23 26 26 26
27 29 25 22 17 21 19 20 20 20 20 20 22 23 25 26 27 28 29 26 21 20 18 18 16 18 20 20 13 13 13 14 14 10 14 19 23 25 26 28 31 28 19 26
33 22 23 24 21 16 16 15 16 17 16 17 18 19 21 23 24 26 27 27 26 23 21 18 15 15 15 16 16 13 7 7 7 10 12 14 14 16 17 20 26 28 28 22
33 33 25 19 22 18 15 15 13 12 14 13 14 15 17 18 20 21 23 25 25 25 24 20 14 14 15 13 14 15 15 12 6 8 10 8 8 9 12 15 16 17 23 32
29 30 28 27 19 20 17 15 14 12 8 12 10 11 13 14 15 16 18 20 22 23 24 24 20 16 14 9 10 9 10 10 11 13 14 15 13 10 6 2 3 12 19 21
29 29 28 28 24 18 17 18 14 15 13 7 11 7 8 10 12 13 14 15 16 18 19 22 22 20 18 17 12 9 10 8 9 12 14 13 13 14 14 12 8 13 20 19
32 34 31 27 25 23 16 17 15 12 16 14 9 9 7 5 7 9 10 11 12 13 14 15 18 19 19 18 19 16 13 9 8 8 8 8 10 11 12 11 12 12 16 18
27 30 32 31 27 24 23 18 18 17 13 17 15 11 11 8 4 4 6 7 8 9 9 11 11 14 16 17 17 19 20 19 17 14 10 8 10 8 10 14 13 11 16 20
26 32 30 28 31 28 27 26 22 22 20 17 19 18 14 14 11 6 4 2 4 5 6 7 9 9 11 13 14 16 15 16 18 19 18 20 18 13 13 17 19 16 15 16
35 31 31 31 29 31 27 28 26 27 25 23 21 22 21 18 18 14 10 7 3 1 1 4 5 6 7 8 10 12 13 15 15 16 17 17 16 16 17 18 18 20 20 20
36 35 32 34 33 33 33 30 29 27 31 27 28 24 25 23 21 21 17 12 10 7 5 4 1 3 3 4 6 7 10 12 14 16 16 16 16 17 18 16 14 14 13 13
37 37 37 34 31 30 33 31 30 27 30 34 29 29 28 28 25 24 24 20 15 13 11 9 7 4 2 0 1 2 5 7 9 11 12 13 14 14 14 15 14 13 12 10
43 43 40 38 33 29 32 31 31 31 30 32 36 33 32 29 31 27 26 26 22 18 15 14 12 11 8 5 3 3 3 5 5 5 6 7 7 8 9 9 9 9 9 10
44 44 40 37 35 31 33 30 34 36 34 31 35 38 36 34 32 32 30 29 28 24 20 17 18 16 15 12 11 7 7 7 7 7 6 5 4 1 3 4 4 4 5 7
45 43 43 39 33 34 38 37 35 37 40 35 30 34 39 39 38 35 33 32 32 30 26 22 21 20 16 15 17 14 12 11 10 9 8 7 7 7 4 4 5 6 8 10
46 45 42 40 36 39 40 42 40 36 38 38 31 30 37 44 44 44 39 36 36 35 31 27 26 20 12 22 16 18 16 15 15 14 13 11 11 12 11 10 11 12 13 14
46 45 44 43 42 42 43 44 44 42 38 40 37 34 36 40 46 45 47 45 41 38 35 34 29 15 23 21 20 18 19 19 19 17 17 17 16 15 16 16 16 17 19 20
49 46 47 51 49 45 46 47 46 44 42 41 42 41 41 40 45 50 46 49 49 44 38 38 32 17 26 26 20 19 18 19 22 21 20 20 19 19 19 20 20 21 23 24
51 54 56 58 54 50 50 48 48 46 45 42 42 41 41 40 39 46 50 45 49 51 45 39 33 23 31 27 22 22 20 19 19 20 21 20 20 21 23 24 25 27 28 29
57 59 61 63 56 55 55 52 46 44 44 43 44 43 40 39 41 43 50 52 45 50 52 46 37 31 37 32 29 27 24 22 19 19 20 20 21 22 24 26 28 30 32 33
61 63 66 63 62 59 56 51 47 45 45 43 43 42 41 39 41 47 48 54 51 51 53 51 45 39 38 34 35 33 29 27 24 22 22 22 22 23 24 26 29 30 32 34
65 68 68 65 61 58 56 54 48 42 42 43 44 44 43 40 43 47 49 54 56 51 47 50 49 46 43 41 38 37 34 32 29 27 27 26 25 25 26 28 29 30 31 33
67 70 68 63 61 57 54 53 49 44 44 45 45 47 49 48 45 49 50 53 57 52 46 42 42 43 44 45 48 36 38 35 31 28 27 27 27 28 29 29 30 31 33 35
71 67 63 63 61 57 53 49 45 43 42 41 44 48 47 50 51 49 51 47 49 49 48 40 33 34 38 38 44 44 41 39 34 30 28 27 28 29 31 32 33 34 35 38

GFSNW_500_spd_129.txt.gz
Wind_Speed
31 32 34 34 33 33 34 32 32 33 32 34 34 34 35 34 29 24 18 15 14 15 15 14 16 16 16 17 19 19 23 24 15 17 18 21 21 20 18 22 21 21 20 20
32 27 27 26 27 28 29 29 28 29 30 32 32 34 35 33 31 28 24 22 18 15 15 15 14 16 17 15 15 19 20 21 19 17 17 17 21 23 20 21 25 24 25 25
25 27 25 20 21 22 23 23 24 26 27 28 30 30 32 33 31 28 27 23 21 19 21 20 17 15 16 14 15 19 15 14 22 28 29 21 23 22 23 23 23 29 33 31
32 22 22 22 16 16 18 19 20 22 25 24 25 27 28 29 31 30 28 26 23 20 19 20 20 16 16 13 14 17 16 15 19 22 24 26 29 32 31 26 24 31 35 34
34 33 26 21 21 17 15 16 17 17 19 22 22 22 23 24 26 28 28 27 24 23 20 18 17 16 15 9 9 11 11 14 17 17 15 17 22 24 27 25 20 23 33 38
31 35 30 29 22 20 21 16 16 15 14 15 18 19 18 19 20 22 25 25 24 22 21 20 16 14 13 13 11 6 4 7 7 8 7 12 15 17 17 23 20 18 28 33
28 31 33 34 30 26 19 19 17 14 15 13 12 14 17 16 16 17 18 21 22 21 23 21 18 14 10 10 10 12 13 12 12 9 5 3 6 9 10 14 19 23 27 30
31 33 32 34 35 30 24 19 17 16 12 15 12 8 10 13 13 13 14 14 16 19 20 21 20 20 16 12 8 5 5 7 9 10 11 6 3 4 9 7 11 22 22 26
31 33 32 34 34 32 31 26 22 19 17 12 14 13 8 7 10 11 11 11 11 13 15 16 17 18 17 18 13 10 6 6 6 8 7 9 9 7 9 10 12 19 19 19
32 30 30 33 37 32 33 32 27 22 20 19 15 15 12 10 6 8 9 9 9 8 9 11 13 13 15 16 17 18 16 12 7 4 5 7 10 7 10 7 9 15 15 15
33 32 33 35 34 34 33 32 33 29 23 21 21 18 18 14 12 9 7 8 9 8 6 7 8 9 11 13 14 16 17 18 18 17 13 9 10 11 9 10 7 13 12 9
31 33 34 32 30 32 32 31 30 32 29 24 23 24 21 20 18 16 11 9 8 7 7 4 4 5 7 8 10 12 13 15 16 18 21 24 23 15 11 8 12 13 9 8
30 30 34 33 32 32 29 31 30 29 30 28 24 23 26 24 23 21 20 16 12 11 8 8 4 2 3 4 5 7 10 11 14 15 18 19 20 21 21 20 18 16 16 14
32 31 33 34 36 37 34 32 28 29 28 29 26 25 25 28 27 26 24 23 19 17 14 12 10 7 4 2 1 2 4 8 11 13 15 17 17 17 17 16 16 15 14 13
39 38 37 37 39 39 37 35 29 26 28 31 30 29 27 27 31 31 29 28 26 23 20 17 16 14 9 6 5 4 3 2 4 8 10 11 11 12 12 12 12 12 12 11
43 42 41 40 40 38 36 34 30 31 27 35 31 30 27 27 28 34 36 32 30 29 25 24 19 21 17 12 11 9 9 8 7 5 5 6 6 6 6 6 6 6 6 5
48 47 44 43 42 38 37 36 32 30 33 33 32 32 29 27 28 30 38 40 37 34 31 27 26 25 23 16 17 16 12 12 13 12 11 9 6 4 3 2 1 1 2 3
48 51 45 45 42 37 39 38 34 33 36 36 34 30 30 32 32 30 32 42 42 40 37 31 31 31 25 14 27 23 20 17 16 16 16 14 13 13 11 8 7 6 8 9
46 52 49 44 40 38 41 39 34 34 37 38 34 34 33 31 32 36 37 35 44 44 42 38 38 34 22 17 27 25 25 25 22 19 18 17 16 15 16 16 15 15 15 16
46 49 49 44 39 40 41 39 40 37 40 39 36 36 36 38 38 38 41 41 40 48 46 44 44 37 25 26 32 31 27 27 25 24 22 20 21 19 18 19 19 20 20 20
49 45 49 46 42 42 41 42 42 42 41 37 35 39 43 43 42 43 43 47 49 50 49 46 48 39 29 33 37 35 26 25 26 26 24 25 23 23 23 23 22 23 23 24
49 47 50 49 48 48 47 43 44 42 41 38 40 42 44 45 45 45 45 46 51 52 53 52 46 44 30 38 39 40 29 29 29 27 26 26 26 25 24 24 25 25 26 27
48 48 50 51 52 52 50 45 44 45 41 41 44 46 46 45 48 49 48 49 50 53 54 55 48 39 43 43 43 42 37 34 34 30 28 26 27 27 26 26 25 25 26 28
48 50 49 52 57 54 51 49 48 48 45 46 47 49 49 49 51 53 53 53 49 52 51 48 47 51 43 49 50 47 44 40 39 35 33 28 27 26 26 26 26 27 28 30
54 59 57 57 55 55 54 52 50 51 53 53 51 52 53 53 55 56 56 54 50 44 45 44 44 46 48 44 54 52 45 46 43 41 38 34 31 29 29 29 29 29 31 32
58 60 61 64 58 53 55 54 53 54 56 58 57 58 59 57 56 58 55 51 44 37 41 41 40 40 39 49 43 52 53 50 48 43 41 39 37 35 34 33 33 33 34 34
58 57 60 59 57 57 57 57 58 58 58 60 62 63 56 60 60 55 50 42 36 41 45 44 39 39 36 42 42 37 55 57 53 48 45 43 41 39 38 36 36 36 36 36

GFSNW_500_spd_132.txt.gz
Wind_Speed
31 30 30 26 25 26 27 27 29 30 31 31 34 32 30 29 25 22 19 16 14 14 12 13 15 17 17 17 19 22 25 21 14 15 17 18 18 18 12 12 16 15 19 19
41 31 31 27 25 23 24 25 25 27 28 30 30 31 30 27 25 21 20 19 18 17 14 13 15 13 15 17 15 17 22 19 17 16 17 16 13 15 12 12 12 16 20 18
38 39 34 27 27 26 24 23 24 23 25 27 28 28 29 28 23 22 18 16 17 19 17 13 12 12 12 14 14 16 19 21 17 17 17 16 15 14 15 11 13 15 14 16
34 34 38 37 35 26 25 23 20 21 22 22 24 25 26 26 25 21 20 18 17 17 15 14 9 8 7 11 10 12 15 17 17 16 15 20 15 13 15 16 17 15 16 13
31 32 33 36 38 36 30 25 24 22 20 20 20 20 22 23 22 23 20 18 16 15 14 12 12 11 4 3 3 5 7 9 9 10 11 13 16 15 12 15 15 23 24 20
29 32 35 35 34 35 35 34 28 24 22 21 18 18 18 18 20 20 20 19 16 15 13 14 10 8 9 10 3 2 5 7 6 3 6 9 9 15 12 10 21 27 28 27
25 29 30 31 31 34 31 36 33 30 23 21 21 18 15 16 17 17 17 17 17 16 14 14 13 10 7 5 5 5 5 5 6 5 4 6 7 7 8 11 18 22 24 30
23 25 27 29 31 31 30 31 33 34 30 24 21 21 20 15 14 15 15 15 15 16 15 15 15 15 12 9 5 2 3 3 4 6 3 2 5 5 3 4 11 17 22 22
26 26 26 27 27 28 27 26 29 30 34 30 25 21 21 21 17 13 15 14 14 14 15 14 12 14 14 14 10 7 2 0 3 3 4 3 1 1 3 5 5 9 14 13
32 33 30 28 25 26 26 25 25 28 31 31 28 25 21 21 21 18 16 15 14 12 12 13 13 12 11 12 13 12 8 3 1 4 7 7 6 1 2 2 1 7 6 8
31 34 33 30 27 25 25 27 25 27 28 31 30 28 25 22 22 21 19 18 16 13 11 12 11 10 10 9 9 10 13 13 10 9 12 11 10 7 5 3 8 7 4 1
26 30 30 32 33 32 26 25 27 28 28 28 29 30 28 24 22 24 24 22 20 17 16 11 11 10 8 8 7 6 8 13 14 13 11 11 10 8 8 8 11 10 1 7
28 27 31 33 35 34 35 31 26 24 26 26 28 28 30 31 27 25 24 26 24 23 19 18 14 12 10 7 5 4 3 8 13 16 16 14 10 7 6 6 4 12 14 12
29 32 30 36 38 37 35 34 29 25 21 23 24 28 29 31 31 29 27 27 29 27 26 22 20 19 12 12 8 6 4 4 8 14 17 18 18 17 18 17 14 13 11 11
35 33 33 36 38 38 37 36 33 25 21 19 18 26 31 30 32 32 29 29 29 31 29 27 26 23 21 16 14 13 10 9 7 8 11 13 15 15 15 13 12 11 8 8
36 38 32 32 37 37 36 38 31 29 20 18 15 25 31 33 31 32 34 31 30 31 34 31 29 30 28 20 16 23 19 14 13 12 10 10 10 9 10 9 8 7 7 5
40 41 32 27 34 38 39 37 36 27 23 22 21 22 30 34 33 30 33 35 32 30 32 35 33 32 35 25 17 35 21 18 19 18 17 15 14 12 11 10 10 9 8 6
42 45 40 33 33 40 38 39 35 29 25 26 24 28 32 35 34 33 33 36 36 34 33 32 36 37 38 29 29 37 32 26 26 23 21 20 20 19 17 16 14 12 11 10
47 46 51 44 34 36 38 39 39 32 24 26 26 33 36 36 34 33 35 39 38 35 33 38 39 38 37 31 32 36 38 35 33 30 26 25 24 23 22 21 21 19 18 16
47 46 49 45 44 34 35 41 42 35 30 30 33 40 40 39 39 37 37 38 42 42 39 39 39 40 36 34 37 41 42 41 37 31 32 31 27 26 26 25 23 24 24 23
54 52 51 52 48 35 35 38 43 36 33 35 40 41 40 41 40 40 40 39 40 42 42 42 44 40 39 34 38 43 47 46 40 38 36 33 32 32 30 29 28 27 26 25
52 49 52 52 49 43 38 37 38 34 37 37 41 44 44 45 46 46 46 45 46 43 43 43 42 43 45 42 38 46 49 51 47 44 40 38 36 36 34 33 31 32 31 30
53 50 50 54 50 52 51 43 39 37 38 42 44 45 45 48 49 49 49 51 51 49 48 47 49 51 51 42 36 42 51 50 49 50 44 42 38 38 37 37 37 35 33 32
55 51 50 55 61 51 46 50 54 43 41 44 46 48 48 49 53 53 53 55 54 54 55 53 49 50 52 48 40 41 51 54 48 51 49 44 43 40 39 38 37 37 36 34
58 58 58 63 51 46 42 40 41 44 48 50 52 51 52 53 56 56 57 57 56 56 54 51 50 48 45 45 41 38 45 52 53 52 53 47 46 45 41 38 38 38 37 36
59 56 58 51 46 44 42 42 43 49 52 55 57 55 58 56 58 60 58 59 57 51 52 56 53 50 49 45 43 40 42 52 48 55 55 55 49 47 46 44 41 39 39 39
58 49 51 49 39 40 42 44 49 51 55 58 61 60 58 64 65 62 59 58 54 55 57 56 54 49 44 44 43 40 42 42 53 47 59 55 56 52 49 48 46 45 44 43